STARLINK-1225 (45187 NORAD) Tracking and Keplerian Element Data

This shows tracking and keplerian element data for the satellite.

Feedback or suggestion? Click here.




ElementValue
Catalog45187
NameSTARLINK-1225
Epoch Orbit175
Epoch Day188.91667824
Epoch Year2020
RAAN347.1686
Inclination52.9998
Eccentricity0.0001103
Argument of Perigee99.6611
Mean Anonmoly119.6552
Mean Motion15.05571265
Decay Rate0.00037274
L11 45187U 20012K 20188.91667824 .00037274 00000-0 25645-2 0 9999
L22 45187 52.9998 347.1686 0001103 99.6611 119.6552 15.05571265 1750

Live tracking and technical data element details for STARLINK-1225 (NORAD 45187). STARLINK-1225 can be tracked NOW for your location showing map with azimuth and elevation plus other details from your city location.

Track the satellite on the map from your city or location and see movement details for azimuth, elevation, latitude, longitude, range, height, and movement on the map or in text.







IsCatalogInMostPopularTable: catalog: 45187, numindb: 28
Update: records affected: 1



GetName: 45187 STARLINK-1225

Hit Count: updated at: Wed, 08 Jul 2020 05:08:30 GMT